{"data":{"norad_id":51769,"intl_designator":"2022-017B","name":"STARLINK-3621","alt_names":[],"object_type":"PAYLOAD","status":"ACTIVE","operator":null,"country":"US","launch_date":"2022-02-25","launch_site_code":"AFWTR","launch_vehicle":null,"mission":null,"orbit_class":"UNKNOWN","rcs_meters":null,"size_class":null,"mass_kg":null,"dimensions":null,"purposes":["comms"],"wikipedia_slug":null,"has_3d_model":false,"image_url":null,"decayed_at":null,"tle_current":{"epoch":"2026-05-24T23:31:32.956320Z","epoch_age_seconds":80052,"freshness":"FRESH","line1":"1 51769U 22017B   26144.98024255  .00007135  00000+0  45847-3 0  9998","line2":"2 51769  53.2172 356.5534 0001493  96.7348 263.3814 15.09435897234125","mean_motion":15.09435897,"eccentricity":0.0001493,"inclination_deg":53.2172,"raan_deg":356.5534,"arg_perigee_deg":96.7348,"mean_anomaly_deg":263.3814,"bstar":0.00045847,"rev_number":23412,"period_min":95.399877720014,"perigee_km":536.89000177823,"apogee_km":538.95513716568,"semimajor_km":6916.059569472,"source":"CELESTRAK","updated_at":"2026-05-25T13:38:16.949646Z"}}}